Regional Weather Roundup
Issued by NWS

Home | Current Version | Previous Version | Graphics & Text | Print | Product List | Glossary On
Versions: 1 2 3 4 5 6 7 8 9 10 11 12 13 14 15 16 17 18 19 20 21 22 23 24 25 26 27 28 29 30 31 32 33 34 35 36 37 38 39 40 41 42 43 44 45 46 47 48 49 50
000
ASUS43 KFSD 260610
RWRSD

WEATHER ROUNDUP FOR SOUTH DAKOTA
NATIONAL WEATHER SERVICE SIOUX FALLS SD
100 AM CDT FRI AUG 26 2016

NOTE: "FAIR" INDICATES FEW OR NO CLOUDS BELOW 12,000 FEET WITH NO
SIGNIFICANT WEATHER AND/OR OBSTRUCTIONS TO VISIBILITY.


SDZ001>005-009-010-012>017-260700-
NORTHWEST AND NORTH CENTRAL SOUTH DAKOTA

CITY           SKY/WX    TMP DP  RH WIND       PRES   REMARKS
BUFFALO          N/A     56  38  50 S6        30.13S
FAITH            N/A     50  45  83 S13       30.18F
MOBRIDGE       FAIR      55  46  71 SE5       30.15F
$$

SDZ012>016-024>037-041>051-057-063-072>074-260700-
SOUTHWEST AND SOUTH CENTRAL SOUTH DAKOTA

CITY           SKY/WX    TMP DP  RH WIND       PRES   REMARKS
RAPID CTY ARPT FAIR      50  45  83 E7        30.21R
PIERRE         FAIR      50  45  83 CALM      30.18S
CUSTER         FAIR      47  44  90 CALM      30.26F
ELLSWORTH AFB  CLEAR     54  47  77 SE8       30.20S
PHILIP         FAIR      51  46  83 E5        30.20R
PINE RIDGE     MOCLDY    53  49  86 CALM      30.21S
WINNER         FAIR      56  48  74 S6        30.21S
$$

SDZ004>011-016>023-039-040-260700-
NORTHEAST SOUTH DAKOTA

CITY           SKY/WX    TMP DP  RH WIND       PRES   REMARKS
ABERDEEN       CLOUDY    50  47  89 SW3       30.17R
WATERTOWN      FAIR      53  50  89 CALM      30.18R
BROOKINGS      FAIR      52  51  97 CALM      30.18S
SISSETON         N/A     58  54  86 W7        30.15R
$$

SDZ017-020-022-023-036>040-048>070-260700-
SOUTHEAST SOUTH DAKOTA

CITY           SKY/WX    TMP DP  RH WIND       PRES   REMARKS
SIOUX FALLS    FAIR      55  53  93 NW3       30.20R
HURON          FAIR      52  49  89 SW3       30.18F
CHAMBERLAIN    FAIR      53  49  87 SE3       30.20S
MITCHELL       FAIR      56  52  86 S3        30.19F
YANKTON        FAIR      54  48  82 NW3       30.18R
$$

ABBREVIATIONS USED IN REMARKS
   TC - TEMPERATURE IN CELSIUS
  WCI - WIND CHILL INDEX
   HX - HEAT INDEX
  VSB - VISIBILITY





USA.gov is the U.S. government's official web portal to all federal, state and local government web resources and services.